SCP
0 0 0 0 0 0 0 0 0 0 0 0 0 0 0 0 0 0 0 0 0 0 0 0 0 0 0 0 0 0 0 0 0 0 0 0 0 0
0 0 0 0 0 0 0 0 0 0 0 0 0 0 0 0 0 0 0 0 0 0 0 0 0 0 0 0 0 0 0 0 0 0 0 0 0 0
0 0 0 0 0 0 0 0 0 0 0 0 0 0 0 0 0 0 0 0 0 0 0 0 0 0 0 0 0 0 0 0 0 0 0 0 0 0
0 0 0 0 0 0 0 0 0 0 0 0 0 0 0 0 0 0 0 0 0 0 0 0 0 0 0 0 0 0 0 0 0 0 0 0 0 0
0 0 0 0 0 0 0 0 0 0 0 0 0 0 0 0 0 0 0 0 0 0 0 0 0 0 0 0 0 0 0 0 0 0 0 0 0 0
0 0 0 0 0 0 0 0 0 0 0 0 0 0 0 0 0 0 0 0 0 0 0 0 0 0 0 0 0 0 0 0 0 0 0 0 0 0
0 0 0 0 0 0 0 0 0 0 0 0 0 0 0 0 0 0 0 0 0 0 0 0 0 0 0 0 0 0 0 0 0 0 0 0 0 0
0 0 0 0 0 0 0 0 0 0 0 0 0 0 0 0 0 0 0 0 0 0 0 0 0 0 0 0 0 0 0 0 0 0 0 0 0 0
0 0 0 0 0 0 0 0 0 0 0 0 0 0 0 0 0 0 0 0 0 0 0 0 0 0 0 0 0 0 0 0 0 0 0 0 0 0
0 0 0 0 0 0 0 0 0 0 0 0 0 0 0 0 0 0 0 0 0 0 0 0 0 0 0 0 0 0 0 0 0 0 0 0 0 0
0 0 0 0 0 0 0 0 0 0 0 0 0 0 0 0 0 0 0 0 0 0 0 0 0 0 0 0 0 0 0 0 0 0 0 0 0 0
0 0 0 0 0 0 0 0 0 0 0 0 0 0 0 0 0 0 0 0 0 0 0 0 0 0 0 0 0 0 0 0 0 0 0 0 0 0
0 0 0 0 0 0 0 0 0 0 0 0 0 0 0 0 0 0 0 0 0 0 0 0 0 0 0 0 0 0 0 0 0 0 0 0 0 0
0 0 0 0 0 0 0 0 0 0 0 0 0 0 0 0 0 0 0 0 0 0 0 0 0 0 0 0 0 0 0 0 0 0 0 0 0 0
0 0 0 0 0 0 0 0 0 0 0 0 0 0 0 0 0 0 0 0 0 0 0 0 0 0 0 0 0 0 0 0 0 0 0 0 0 0
0 0 0 0 0 0 0 0 0 0 0 0 0 0 0 0 0 0 0 0 0 0 0 0 0 0 0 0 0 0 0 0 0 0 0 0 0 0
0 0 0 0 0 0 0 0 0 0 0 0 0 0 0 0 0 0 0 0 0 0 0 0 0 0 0 0 0 0 0 0 0 0 0 0 0 0
0 0 0 0 0 0 0 0 0 0 0 0 0 0 0 0 0 0 0 0 0 0 0 0 0 0 0 0 0 0 0 0 0 0 0 0 0 0
0 0 0 0 0 0 0 0 0 0 0 0 0 0 0 0 0 0 0 0 0 0 0 0 0 0 0 0 0 0 0 0 0 0 0 0 0 0
0 0 0 0 0 0 0 0 0 0 0 0 0 0 0 0 0 0 0 0 0 0 0 0 0 0 0 0 0 0 0 0 0 0 0 0 0 0
0 0 0 0 0 0 0 0 0 0 0 0 0 0 0 0 0 0 0 0 0 0 0 0 0 0 0 0 0 0 0 0 0 0 0 0 0 0
0 0 0 0 0 0 0 0 0 0 0 0 0 0 0 0 0 0 0 0 0 0 0 0 0 0 0 0 0 0 0 0 0 0 0 0 0 0
0 0 0 0 0 0 0 0 0 0 0 0 0 0 0 0 0 0 0 0 0 0 0 0 0 0 0 0 0 0 0 0 0 0 0 0 0 0
Wind_Speed
2 3 2 2 1 1 1 1 1 0 2 3 2 3 3 3 4 3 5 10 9 10 10 10 9 10 10 11 11 12 12 12 12 12 12 12 12 12
2 2 2 2 2 1 1 1 2 2 2 3 2 3 3 2 4 4 5 7 7 8 8 8 8 8 9 9 10 10 10 10 10 11 11 12 12 12
3 3 3 3 2 2 1 1 2 2 1 2 2 2 2 3 3 2 2 2 4 7 7 7 7 7 7 8 8 8 9 9 10 10 10 11 11 12
3 3 3 2 2 2 1 1 1 1 1 1 2 2 2 2 2 2 2 2 2 5 5 5 6 6 7 7 7 8 8 8 9 9 10 11 11 11
3 3 2 2 2 2 1 1 1 1 1 0 1 1 1 1 1 2 2 2 2 2 2 2 3 4 5 6 6 7 8 8 9 9 10 10 11 12
2 2 2 1 1 1 1 1 1 1 1 0 0 0 0 1 1 1 1 1 2 2 2 2 1 2 2 4 5 6 7 8 8 9 10 11 11 12
3 3 3 4 5 3 1 1 1 1 1 1 0 0 0 1 2 2 2 2 2 2 3 3 2 2 2 1 3 6 7 8 8 9 10 11 11 12
3 3 4 4 4 4 3 3 3 1 1 1 1 1 2 2 2 3 3 4 3 2 4 3 3 3 3 3 4 6 7 8 9 10 10 11 12 13
3 3 2 2 2 3 4 4 2 2 3 3 2 2 2 2 3 3 4 4 4 4 4 4 3 4 3 2 2 5 7 8 10 10 11 12 12 13
3 2 2 2 1 1 1 2 1 1 0 2 2 2 3 3 3 4 4 4 4 2 4 5 4 5 5 4 1 4 7 8 10 11 11 12 12 13
3 2 2 2 3 1 2 2 1 1 2 1 2 2 3 3 4 3 3 4 4 3 2 5 5 6 6 5 2 3 6 8 9 10 11 11 12 14
3 3 1 1 2 2 3 2 2 1 1 2 2 3 2 2 3 4 4 4 5 4 2 4 5 6 5 3 4 5 5 6 8 8 9 10 11 10
3 3 3 5 3 3 3 2 1 2 2 2 2 2 2 2 2 2 3 4 5 4 3 4 5 6 6 6 6 5 6 6 6 6 7 7 9 10
2 2 3 6 5 4 3 1 1 2 2 2 2 2 2 2 2 3 3 4 4 6 5 5 5 6 7 8 7 6 6 6 7 7 7 7 8 9
1 2 3 5 5 4 4 3 3 3 3 3 3 2 2 3 3 3 4 4 5 4 5 5 6 6 7 8 8 8 8 7 6 7 8 8 8 7
4 4 6 5 4 2 4 4 3 2 3 3 3 3 3 2 2 3 3 4 4 4 4 5 6 7 7 8 8 9 8 7 7 8 8 8 8 8
4 4 4 4 4 4 3 3 3 3 3 3 3 3 3 3 3 3 3 4 5 5 4 4 5 6 8 9 8 8 8 8 8 8 9 9 9 8
5 4 4 4 4 4 3 3 3 3 3 3 4 4 4 4 4 3 3 4 5 5 5 5 5 6 6 5 6 8 8 8 8 9 9 10 10 9
5 4 4 4 4 3 3 3 3 3 3 4 4 4 4 4 4 4 4 4 5 5 5 5 5 5 7 8 5 4 8 9 9 9 9 9 11 10
5 5 4 4 4 4 3 3 3 3 3 4 4 4 4 4 4 4 4 5 5 5 5 5 5 5 7 9 9 8 7 8 8 9 10 10 10 11
5 5 4 4 4 4 4 4 4 4 4 4 4 4 4 4 4 5 4 5 6 6 6 6 5 6 7 7 8 8 7 6 8 9 11 10 11 10
5 5 4 4 4 4 4 4 4 4 4 5 4 4 4 4 5 5 5 5 5 6 7 6 6 5 6 7 9 10 10 9 8 11 12 11 9 9
4 4 4 4 4 4 4 4 5 4 4 5 5 4 4 4 4 4 5 5 5 6 7 6 6 6 6 7 9 9 12 12 9 9 8 8 12 15
Wind_Direction
83 87 76 75 64 44 43 312 308 171 104 81 70 56 44 50 29 41 57 60 50 45 39 38 38 38 39 36 33 28 25 23 21 18 16 12 9 7
77 77 74 77 73 69 43 8 341 346 63 79 74 74 54 49 47 37 55 75 58 46 39 36 35 35 33 29 26 23 19 17 15 12 9 6 3 360
114 106 97 83 90 85 69 56 28 23 86 96 90 71 66 42 53 30 32 37 63 55 37 32 31 28 24 22 19 17 14 11 8 5 3 359 355 353
121 111 104 100 92 79 73 76 57 18 48 88 104 76 51 37 27 11 18 26 34 65 44 29 25 18 16 14 11 9 6 2 358 355 354 352 348 345
123 115 109 114 121 108 104 89 76 67 51 130 68 64 29 28 4 2 8 356 356 75 84 39 14 4 3 3 0 358 355 353 350 349 348 345 343 339
116 113 109 112 103 120 130 108 109 112 113 135 89 97 27 7 311 324 330 347 336 340 357 340 331 321 342 351 350 349 348 348 348 347 344 340 337 334
127 112 87 68 43 36 27 55 129 178 175 190 207 251 308 323 324 316 314 309 320 328 317 318 311 310 313 331 345 350 346 346 342 339 338 335 331 328
148 139 133 138 117 109 69 42 11 324 288 247 273 297 330 335 327 302 302 301 307 336 306 309 305 306 316 335 11 351 339 337 335 333 332 330 328 325
166 156 146 134 181 153 151 165 137 21 336 310 307 333 323 325 303 297 302 305 310 327 309 299 305 304 309 329 346 326 326 326 327 326 325 325 323 320
175 180 181 168 151 210 177 158 128 113 286 281 305 326 332 329 309 305 302 291 287 305 308 299 311 306 304 296 260 305 313 315 316 318 319 320 319 314
177 183 198 182 121 211 213 191 177 141 121 96 1 2 10 353 321 291 291 289 295 301 314 302 311 307 297 287 268 264 288 296 303 308 311 314 316 308
172 172 149 206 139 203 224 223 233 242 230 193 210 222 241 224 260 278 294 294 299 300 329 306 309 314 299 288 305 300 286 277 281 285 294 305 314 306
185 180 149 154 174 198 253 260 281 289 265 262 265 267 263 266 263 270 291 295 296 297 321 307 301 301 294 300 301 300 303 306 300 289 282 294 302 301
199 186 146 154 174 197 217 187 225 258 258 259 262 266 276 288 294 297 291 285 288 297 304 299 296 301 299 298 302 306 305 302 301 303 306 300 286 280
183 101 123 157 181 189 188 202 220 238 247 255 266 279 290 294 292 289 285 285 282 285 292 291 291 293 291 293 298 303 306 305 301 305 306 305 304 301
194 159 167 183 208 207 191 202 223 241 258 263 275 280 279 273 269 281 285 287 282 277 282 291 291 292 290 292 293 295 300 301 306 307 306 301 299 297
181 189 199 198 206 210 212 216 222 222 234 251 261 267 268 269 272 282 286 286 286 293 298 299 295 291 286 287 288 292 299 301 303 307 305 300 297 297
185 204 213 217 222 224 225 223 225 233 243 250 256 262 265 269 273 274 274 278 284 290 296 304 308 302 291 276 268 290 297 301 303 302 298 298 299 302
203 221 227 227 228 229 230 233 237 241 245 247 253 258 265 268 271 273 273 277 282 289 295 299 301 303 303 302 285 251 293 300 300 299 300 299 298 302
221 228 232 233 232 233 233 237 242 242 242 247 252 256 260 265 270 273 275 283 288 292 292 291 292 296 295 298 300 294 269 289 299 301 304 302 296 292
216 224 231 234 235 234 235 238 240 242 244 246 249 253 255 259 266 272 276 282 284 286 288 291 299 292 286 287 286 291 297 273 277 289 301 302 302 302
218 221 225 232 235 235 234 234 239 242 245 247 251 252 254 257 263 266 272 276 278 283 289 292 294 287 283 284 290 298 303 305 285 268 268 272 291 300
223 225 226 227 230 234 235 236 239 242 242 245 248 249 251 255 261 266 271 275 280 283 286 289 290 287 286 287 291 295 302 307 307 305 298 279 267 271